Date,TemperatureHighF,TemperatureAvgF,TemperatureLowF,DewpointHighF,DewpointAvgF,DewpointLowF,HumidityHigh,HumidityAvg,HumidityLow,PressureMaxIn,PressureMinIn,WindSpeedMaxMPH,WindSpeedAvgMPH,GustSpeedMaxMPH,PrecipitationSumIn
2013-1-1,29,25,20,-100,-100,-100,0,0,100,0.00,40.00,0,-999,0,0.00
2013-1-2,23,18,13,-100,-100,-100,0,0,100,0.00,40.00,0,-999,0,0.00
2013-1-3,37,23,14,-100,-100,-100,0,0,100,0.00,40.00,0,-999,0,0.00
2013-1-4,37,27,18,-100,-100,-100,0,0,100,0.00,40.00,0,-999,0,0.00
2013-1-5,35,30,22,-100,-100,-100,0,0,100,0.00,40.00,0,-999,0,0.00
2013-1-6,37,30,22,-100,-100,-100,0,0,100,0.00,40.00,0,-999,0,0.00
2013-1-7,35,26,18,-100,-100,-100,0,0,100,0.00,40.00,0,-999,0,0.00
2013-1-8,46,34,22,-100,-100,-100,0,0,100,0.00,40.00,0,-999,0,0.00
2013-1-9,51,44,37,-100,-100,-100,0,0,100,0.00,40.00,0,-999,0,0.00
2013-1-10,59,47,39,-100,-100,-100,0,0,100,0.00,40.00,0,-999,0,0.00
2013-1-11,55,51,46,-100,-100,-100,0,0,100,0.00,40.00,0,-999,0,0.00
2013-1-12,62,53,37,-100,-100,-100,0,0,100,0.00,40.00,0,-999,0,0.00
2013-1-13,33,26,16,-100,-100,-100,0,0,100,0.00,40.00,0,-999,0,0.00
2013-1-14,22,17,13,-100,-100,-100,0,0,100,0.00,40.00,0,-999,0,0.00
2013-1-15,22,18,13,-100,-100,-100,0,0,100,0.00,40.00,0,-999,0,0.00
2013-1-16,23,22,20,-100,-100,-100,0,0,100,0.00,40.00,0,-999,0,0.00
2013-1-17,22,22,22,-100,-100,-100,0,0,100,0.00,40.00,0,-999,0,0.00
2013-1-18,22,22,22,-100,-100,-100,0,0,100,0.00,40.00,0,-999,0,0.00
2013-1-19,22,22,22,-100,-100,-100,0,0,100,0.00,40.00,0,-999,0,0.00
2013-1-20,22,22,22,-100,-100,-100,0,0,100,0.00,40.00,0,-999,0,0.00
2013-4-8,68,64,62,-100,-100,-100,0,0,100,0.00,40.00,0,-999,0,0.00
2013-4-9,78,68,59,-100,-100,-100,0,0,100,0.00,40.00,0,-999,0,0.00
2013-4-10,78,71,60,-100,-100,-100,0,0,100,0.00,40.00,0,-999,0,0.00
2013-4-11,60,47,39,-100,-100,-100,0,0,100,0.00,40.00,0,-999,0,0.00
2013-4-12,57,44,33,-100,-100,-100,0,0,100,0.00,40.00,0,-999,0,0.00
2013-4-13,59,45,31,-100,-100,-100,0,0,100,0.00,40.00,0,-999,0,0.00
2013-4-14,69,59,50,-100,-100,-100,0,0,100,0.00,40.00,0,-999,0,0.00
2013-4-15,77,63,53,-100,-100,-100,0,0,100,0.00,40.00,0,-999,0,0.00
2013-4-16,80,66,53,-100,-100,-100,0,0,100,0.00,40.00,0,-999,0,0.00
2013-4-17,80,66,50,-100,-100,-100,0,0,100,0.00,40.00,0,-999,0,0.00
2013-4-18,73,63,39,-100,-100,-100,0,0,100,0.00,40.00,0,-999,0,0.00
2013-4-19,50,40,35,-100,-100,-100,0,0,100,0.00,40.00,0,-999,0,0.00
2013-4-20,55,44,32,-100,-100,-100,0,0,100,0.00,40.00,0,-999,0,0.00
2013-4-21,59,48,39,-100,-100,-100,0,0,100,0.00,40.00,0,-999,0,0.00
2013-4-22,68,56,41,-100,-100,-100,0,0,100,0.00,40.00,0,-999,0,0.00
2013-4-23,68,60,42,-100,-100,-100,0,0,100,0.00,40.00,0,-999,0,0.00
2013-4-24,50,41,33,-100,-100,-100,0,0,100,0.00,40.00,0,-999,0,0.00
2013-4-25,60,46,32,-100,-100,-100,0,0,100,0.00,40.00,0,-999,0,0.00
2013-4-26,53,48,44,-100,-100,-100,0,0,100,0.00,40.00,0,-999,0,0.00
2013-4-27,46,46,46,-100,-100,-100,0,0,100,0.00,40.00,0,-999,0,0.00
2013-5-2,60,60,60,-100,-100,-100,0,0,100,0.00,40.00,0,-999,0,0.00
2013-5-3,59,38,35,-100,-100,-100,0,0,100,0.00,40.00,0,-999,0,0.00
2013-5-6,62,58,35,-100,-100,-100,0,0,100,0.00,40.00,0,-999,0,0.00
2013-5-7,73,60,48,-100,-100,-100,0,0,100,0.00,40.00,0,-999,0,0.00
2013-5-8,73,59,51,-100,-100,-100,0,0,100,0.00,40.00,0,-999,0,0.00
2013-5-9,77,72,66,-100,-100,-100,0,0,100,0.00,40.00,0,-999,0,0.00
2013-5-10,73,65,59,-100,-100,-100,0,0,100,0.00,40.00,0,-999,0,0.00
2013-5-11,71,59,51,-100,-100,-100,0,0,100,0.00,40.00,0,-999,0,0.00
2013-5-12,64,51,37,-100,-100,-100,0,0,100,0.00,40.00,0,-999,0,0.00
2013-5-13,68,55,39,-100,-100,-100,0,0,100,0.00,40.00,0,-999,0,0.00
2013-5-14,86,69,55,-100,-100,-100,0,0,100,0.00,40.00,0,-999,0,0.00
2013-5-15,82,71,62,-100,-100,-100,0,0,100,0.00,40.00,0,-999,0,0.00
2013-5-16,77,68,64,-100,-100,-100,0,0,100,0.00,40.00,0,-999,0,0.00
2013-5-17,69,63,60,-100,-100,-100,0,0,100,0.00,40.00,0,-999,0,0.00
2013-5-18,82,69,57,-100,-100,-100,0,0,100,0.00,40.00,0,-999,0,0.00
2013-5-19,86,77,69,-100,-100,-100,0,0,100,0.00,40.00,0,-999,0,0.00
2013-5-20,86,76,69,-100,-100,-100,0,0,100,0.00,40.00,0,-999,0,0.00
2013-5-21,75,64,60,-100,-100,-100,0,0,100,0.00,40.00,0,-999,0,0.00
2013-5-22,75,66,59,-100,-100,-100,0,0,100,0.00,40.00,0,-999,0,0.00
2013-5-23,73,64,53,-100,-100,-100,0,0,100,0.00,40.00,0,-999,0,0.00
2013-5-24,68,56,44,-100,-100,-100,0,0,100,0.00,40.00,0,-999,0,0.00
2013-5-25,73,59,50,-100,-100,-100,0,0,100,0.00,40.00,0,-999,0,0.00
2013-5-26,80,69,57,-100,-100,-100,0,0,100,0.00,40.00,0,-999,0,0.00
2013-5-27,82,73,62,-100,-100,-100,0,0,100,0.00,40.00,0,-999,0,0.00
2013-5-28,86,76,66,-100,-100,-100,0,0,100,0.00,40.00,0,-999,0,0.00
2013-5-29,86,75,66,-100,-100,-100,0,0,100,0.00,40.00,0,-999,0,0.00
2013-5-30,84,75,71,-100,-100,-100,0,0,100,0.00,40.00,0,-999,0,0.00
2013-5-31,80,72,64,-100,-100,-100,0,0,100,0.00,40.00,0,-999,0,0.00
2013-6-1,75,65,60,-100,-100,-100,0,0,100,0.00,40.00,0,-999,0,0.00
2013-6-2,71,64,59,-100,-100,-100,0,0,100,0.00,40.00,0,-999,0,0.00
2013-6-3,73,62,55,-100,-100,-100,0,0,100,0.00,40.00,0,-999,0,0.00
2013-6-4,78,67,55,-100,-100,-100,0,0,100,0.00,40.00,0,-999,0,0.00
2013-6-5,84,73,59,-100,-100,-100,0,0,100,0.00,40.00,0,-999,0,0.00
2013-6-6,78,69,62,-100,-100,-100,0,0,100,0.00,40.00,0,-999,0,0.00
2013-6-7,75,66,59,-100,-100,-100,0,0,100,0.00,40.00,0,-999,0,0.00
2013-6-8,78,67,53,-100,-100,-100,0,0,100,0.00,40.00,0,-999,0,0.00
2013-6-9,75,69,64,-100,-100,-100,0,0,100,0.00,40.00,0,-999,0,0.00
2013-6-10,86,72,60,-100,-100,-100,0,0,100,0.00,40.00,0,-999,0,0.00
2013-6-11,95,80,66,-100,-100,-100,0,0,100,0.00,40.00,0,-999,0,0.00
2013-6-12,93,84,73,-100,-100,-100,0,0,100,0.00,40.00,0,-999,0,0.00
2013-6-13,82,77,68,-100,-100,-100,0,0,100,0.00,40.00,0,-999,0,0.00
2013-6-14,84,72,62,-100,-100,-100,0,0,100,0.00,40.00,0,-999,0,0.00
2013-6-15,87,75,62,-100,-100,-100,0,0,100,0.00,40.00,0,-999,0,0.00
2013-6-16,86,77,69,-100,-100,-100,0,0,100,0.00,40.00,0,-999,0,0.00
2013-6-17,86,74,64,-100,-100,-100,0,0,100,0.00,40.00,0,-999,0,0.00
2013-6-18,86,72,60,-100,-100,-100,0,0,100,0.00,40.00,0,-999,0,0.00
2013-6-19,89,78,66,-100,-100,-100,0,0,100,0.00,40.00,0,-999,0,0.00
2013-6-20,89,77,68,-100,-100,-100,0,0,100,0.00,40.00,0,-999,0,0.00
2013-6-22,89,82,66,-100,-100,-100,0,0,100,0.00,40.00,0,-999,0,0.00
2013-6-23,89,76,66,-100,-100,-100,0,0,100,0.00,40.00,0,-999,0,0.00
2013-6-24,93,80,71,-100,-100,-100,0,0,100,0.00,40.00,0,-999,0,0.00
2013-6-25,89,82,75,-100,-100,-100,0,0,100,0.00,40.00,0,-999,0,0.00
2013-6-26,89,81,73,-100,-100,-100,0,0,100,0.00,40.00,0,-999,0,0.00
2013-6-27,96,83,75,-100,-100,-100,0,0,100,0.00,40.00,0,-999,0,0.00
2013-6-28,91,79,69,-100,-100,-100,0,0,100,0.00,40.00,0,-999,0,0.00
2013-6-29,86,73,64,-100,-100,-100,0,0,100,0.00,40.00,0,-999,0,0.00
2013-6-30,77,66,60,-100,-100,-100,0,0,100,0.00,40.00,0,-999,0,0.00
2013-7-1,75,66,60,-100,-100,-100,0,0,100,0.00,40.00,0,-999,0,0.00
2013-7-2,69,64,60,-100,-100,-100,0,0,100,0.00,40.00,0,-999,0,0.00
2013-7-3,80,68,57,-100,-100,-100,0,0,100,0.00,40.00,0,-999,0,0.00
2013-7-4,84,71,57,-100,-100,-100,0,0,100,0.00,40.00,0,-999,0,0.00
2013-7-5,82,72,64,-100,-100,-100,0,0,100,0.00,40.00,0,-999,0,0.00
2013-7-6,84,69,62,-100,-100,-100,0,0,100,0.00,40.00,0,-999,0,0.00
2013-7-7,87,77,64,-100,-100,-100,0,0,100,0.00,40.00,0,-999,0,0.00
2013-7-8,89,79,71,-100,-100,-100,0,0,100,0.00,40.00,0,-999,0,0.00
2013-7-9,93,83,73,-100,-100,-100,0,0,100,0.00,40.00,0,-999,0,0.00
2013-7-10,87,82,77,-100,-100,-100,0,0,100,0.00,40.00,0,-999,0,0.00
2013-7-11,84,78,69,-100,-100,-100,0,0,100,0.00,40.00,0,-999,0,0.00
2013-7-12,82,73,60,-100,-100,-100,0,0,100,0.00,40.00,0,-999,0,0.00
2013-7-13,84,73,59,-100,-100,-100,0,0,100,0.00,40.00,0,-999,0,0.00
2013-7-14,84,75,68,-100,-100,-100,0,0,100,0.00,40.00,0,-999,0,0.00
2013-7-15,87,79,71,-100,-100,-100,0,0,100,0.00,40.00,0,-999,0,0.00
2013-7-16,89,82,73,-100,-100,-100,0,0,100,0.00,40.00,0,-999,0,0.00
2013-7-17,95,83,69,-100,-100,-100,0,0,100,0.00,40.00,0,-999,0,0.00
2013-7-18,93,81,73,-100,-100,-100,0,0,100,0.00,40.00,0,-999,0,0.00
2013-7-19,89,78,68,-100,-100,-100,0,0,100,0.00,40.00,0,-999,0,0.00
2013-7-20,89,77,71,-100,-100,-100,0,0,100,0.00,40.00,0,-999,0,0.00
2013-7-21,82,73,69,-100,-100,-100,0,0,100,0.00,40.00,0,-999,0,0.00
2013-7-22,86,76,68,-100,-100,-100,0,0,100,0.00,40.00,0,-999,0,0.00
2013-7-23,86,74,68,-100,-100,-100,0,0,100,0.00,40.00,0,-999,0,0.00
2013-7-24,80,72,66,-100,-100,-100,0,0,100,0.00,40.00,0,-999,0,0.00
2013-7-25,78,68,57,-100,-100,-100,0,0,100,0.00,40.00,0,-999,0,0.00
2013-7-26,77,67,59,-100,-100,-100,0,0,100,0.00,40.00,0,-999,0,0.00
2013-7-27,80,70,62,-100,-100,-100,0,0,100,0.00,40.00,0,-999,0,0.00
2013-7-28,73,65,53,-100,-100,-100,0,0,100,0.00,40.00,0,-999,0,0.00
2013-7-29,73,66,60,-100,-100,-100,0,0,100,0.00,40.00,0,-999,0,0.00
2013-7-30,73,69,64,-100,-100,-100,0,0,100,0.00,40.00,0,-999,0,0.00
2013-7-31,84,77,71,-100,-100,-100,0,0,100,0.00,40.00,0,-999,0,0.00
2013-8-1,86,74,66,-100,-100,-100,0,0,100,0.00,40.00,0,-999,0,0.00
2013-8-2,82,73,62,-100,-100,-100,0,0,100,0.00,40.00,0,-999,0,0.00
2013-8-3,82,74,69,-100,-100,-100,0,0,100,0.00,40.00,0,-999,0,0.00
2013-8-4,80,74,66,-100,-100,-100,0,0,100,0.00,40.00,0,-999,0,0.00
2013-8-5,71,69,64,-100,-100,-100,0,0,100,0.00,40.00,0,-999,0,0.00
2013-8-6,82,73,68,-100,-100,-100,0,0,100,0.00,40.00,0,-999,0,0.00
2013-8-7,80,73,68,-100,-100,-100,0,0,100,0.00,40.00,0,-999,0,0.00
2013-8-8,82,74,69,-100,-100,-100,0,0,100,0.00,40.00,0,-999,0,0.00
2013-8-9,82,76,71,-100,-100,-100,0,0,100,0.00,40.00,0,-999,0,0.00
2013-8-10,82,73,68,-100,-100,-100,0,0,100,0.00,40.00,0,-999,0,0.00
2013-8-11,86,76,69,-100,-100,-100,0,0,100,0.00,40.00,0,-999,0,0.00
2013-8-12,84,76,73,-100,-100,-100,0,0,100,0.00,40.00,0,-999,0,0.00
2013-8-13,82,74,68,-100,-100,-100,0,0,100,0.00,40.00,0,-999,0,0.00
2013-8-14,71,65,57,-100,-100,-100,0,0,100,0.00,40.00,0,-999,0,0.00
2013-8-15,73,62,51,-100,-100,-100,0,0,100,0.00,40.00,0,-999,0,0.00
2013-8-16,75,66,55,-100,-100,-100,0,0,100,0.00,40.00,0,-999,0,0.00
2013-8-17,78,69,60,-100,-100,-100,0,0,100,0.00,40.00,0,-999,0,0.00
2013-8-18,78,69,62,-100,-100,-100,0,0,100,0.00,40.00,0,-999,0,0.00
2013-8-19,82,72,60,-100,-100,-100,0,0,100,0.00,40.00,0,-999,0,0.00
2013-8-20,87,75,62,-100,-100,-100,0,0,100,0.00,40.00,0,-999,0,0.00
2013-8-21,87,75,64,-100,-100,-100,0,0,100,0.00,40.00,0,-999,0,0.00
2013-8-22,91,79,66,-100,-100,-100,0,0,100,0.00,40.00,0,-999,0,0.00
2013-8-23,91,78,68,-100,-100,-100,0,0,100,0.00,40.00,0,-999,0,0.00
2013-8-24,89,78,66,-100,-100,-100,0,0,100,0.00,40.00,0,-999,0,0.00
2013-8-25,87,78,69,-100,-100,-100,0,0,100,0.00,40.00,0,-999,0,0.00
2013-8-26,87,78,71,-100,-100,-100,0,0,100,0.00,40.00,0,-999,0,0.00
2013-8-27,86,76,69,-100,-100,-100,0,0,100,0.00,40.00,0,-999,0,0.00
2013-8-28,93,85,77,-100,-100,-100,0,0,100,0.00,40.00,0,-999,0,0.00
2013-8-29,96,82,69,-100,-100,-100,0,0,100,0.00,40.00,0,-999,0,0.00
2013-8-30,93,80,69,-100,-100,-100,0,0,100,0.00,40.00,0,-999,0,0.00
2013-8-31,95,83,73,-100,-100,-100,0,0,100,0.00,40.00,0,-999,0,0.00
2013-9-1,80,76,69,-100,-100,-100,0,0,100,0.00,40.00,0,-999,0,0.00
2013-9-2,87,77,68,-100,-100,-100,0,0,100,0.00,40.00,0,-999,0,0.00
2013-9-3,84,72,60,-100,-100,-100,0,0,100,0.00,40.00,0,-999,0,0.00
2013-9-4,84,69,57,-100,-100,-100,0,0,100,0.00,40.00,0,-999,0,0.00
2013-9-5,84,70,57,-100,-100,-100,0,0,100,0.00,40.00,0,-999,0,0.00
2013-9-6,86,73,62,-100,-100,-100,0,0,100,0.00,40.00,0,-999,0,0.00
2013-9-7,87,74,60,-100,-100,-100,0,0,100,0.00,40.00,0,-999,0,0.00
2013-9-8,89,78,66,-100,-100,-100,0,0,100,0.00,40.00,0,-999,0,0.00
2013-9-9,95,83,73,-100,-100,-100,0,0,100,0.00,40.00,0,-999,0,0.00
2013-9-10,100,83,73,-100,-100,-100,0,0,100,0.00,40.00,0,-999,0,0.00
2013-9-11,93,79,69,-100,-100,-100,0,0,100,0.00,40.00,0,-999,0,0.00
2013-9-12,87,76,68,-100,-100,-100,0,0,100,0.00,40.00,0,-999,0,0.00
2013-9-13,75,67,57,-100,-100,-100,0,0,100,0.00,40.00,0,-999,0,0.00
2013-9-14,73,62,46,-100,-100,-100,0,0,100,0.00,40.00,0,-999,0,0.00
2013-9-15,80,62,46,-100,-100,-100,0,0,100,0.00,40.00,0,-999,0,0.00
2013-9-16,68,64,59,-100,-100,-100,0,0,100,0.00,40.00,0,-999,0,0.00
2013-9-17,82,69,60,-100,-100,-100,0,0,100,0.00,40.00,0,-999,0,0.00
2013-9-18,75,70,68,-100,-100,-100,0,0,100,0.00,40.00,0,-999,0,0.00
2013-9-19,87,76,68,-100,-100,-100,0,0,100,0.00,40.00,0,-999,0,0.00
2013-9-20,75,69,64,-100,-100,-100,0,0,100,0.00,40.00,0,-999,0,0.00
2013-9-21,71,61,51,-100,-100,-100,0,0,100,0.00,40.00,0,-999,0,0.00
2013-9-22,75,60,46,-100,-100,-100,0,0,100,0.00,40.00,0,-999,0,0.00
2013-9-23,77,63,51,-100,-100,-100,0,0,100,0.00,40.00,0,-999,0,0.00
2013-9-24,69,64,57,-100,-100,-100,0,0,100,0.00,40.00,0,-999,0,0.00
2013-9-25,75,66,60,-100,-100,-100,0,0,100,0.00,40.00,0,-999,0,0.00
2013-9-26,82,69,59,-100,-100,-100,0,0,100,0.00,40.00,0,-999,0,0.00
2013-9-27,82,70,60,-100,-100,-100,0,0,100,0.00,40.00,0,-999,0,0.00
2013-9-28,80,70,60,-100,-100,-100,0,0,100,0.00,40.00,0,-999,0,0.00
2013-9-29,69,63,60,-100,-100,-100,0,0,100,0.00,40.00,0,-999,0,0.00
2013-9-30,68,64,62,-100,-100,-100,0,0,100,0.00,40.00,0,-999,0,0.00
2013-10-1,69,68,68,-100,-100,-100,0,0,100,0.00,40.00,0,-999,0,0.00
2013-10-2,75,70,68,-100,-100,-100,0,0,100,0.00,40.00,0,-999,0,0.00
2013-10-3,80,71,66,-100,-100,-100,0,0,100,0.00,40.00,0,-999,0,0.00
2013-10-4,82,73,66,-100,-100,-100,0,0,100,0.00,40.00,0,-999,0,0.00
2013-10-5,78,70,66,-100,-100,-100,0,0,100,0.00,40.00,0,-999,0,0.00
2013-10-6,62,54,46,-100,-100,-100,0,0,100,0.00,40.00,0,-999,0,0.00
2013-10-7,64,52,44,-100,-100,-100,0,0,100,0.00,40.00,0,-999,0,0.00
2013-10-8,68,55,42,-100,-100,-100,0,0,100,0.00,40.00,0,-999,0,0.00
2013-10-9,75,61,44,-100,-100,-100,0,0,100,0.00,40.00,0,-999,0,0.00
2013-10-10,73,64,57,-100,-100,-100,0,0,100,0.00,40.00,0,-999,0,0.00
2013-10-11,77,64,53,-100,-100,-100,0,0,100,0.00,40.00,0,-999,0,0.00
2013-10-12,68,61,57,-100,-100,-100,0,0,100,0.00,40.00,0,-999,0,0.00
2013-10-13,69,59,50,-100,-100,-100,0,0,100,0.00,40.00,0,-999,0,0.00
2013-10-14,71,58,46,-100,-100,-100,0,0,100,0.00,40.00,0,-999,0,0.00
2013-10-15,66,62,60,-100,-100,-100,0,0,100,0.00,40.00,0,-999,0,0.00
2013-10-16,64,54,48,-100,-100,-100,0,0,100,0.00,40.00,0,-999,0,0.00
2013-10-17,60,51,44,-100,-100,-100,0,0,100,0.00,40.00,0,-999,0,0.00
2013-10-18,66,51,41,-100,-100,-100,0,0,100,0.00,40.00,0,-999,0,0.00
2013-10-19,55,46,39,-100,-100,-100,0,0,100,0.00,40.00,0,-999,0,0.00
2013-10-20,60,48,37,-100,-100,-100,0,0,100,0.00,40.00,0,-999,0,0.00
2013-10-21,62,50,39,-100,-100,-100,0,0,100,0.00,40.00,0,-999,0,0.00
2013-10-22,59,46,32,-100,-100,-100,0,0,100,0.00,40.00,0,-999,0,0.00
2013-10-23,51,42,33,-100,-100,-100,0,0,100,0.00,40.00,0,-999,0,0.00
2013-10-24,46,41,32,-100,-100,-100,0,0,100,0.00,40.00,0,-999,0,0.00
2013-10-25,48,37,25,-100,-100,-100,0,0,100,0.00,40.00,0,-999,0,0.00
2013-10-26,57,44,33,-100,-100,-100,0,0,100,0.00,40.00,0,-999,0,0.00
2013-10-27,59,48,35,-100,-100,-100,0,0,100,0.00,40.00,0,-999,0,0.00
2013-10-28,66,50,37,-100,-100,-100,0,0,100,0.00,40.00,0,-999,0,0.00
2013-10-29,62,53,46,-100,-100,-100,0,0,100,0.00,40.00,0,-999,0,0.00
2013-10-30,71,65,60,-100,-100,-100,0,0,100,0.00,40.00,0,-999,0,0.00
2013-10-31,68,62,53,-100,-100,-100,0,0,100,0.00,40.00,0,-999,0,0.00
2013-11-1,64,52,44,-100,-100,-100,0,0,100,0.00,40.00,0,-999,0,0.00
2013-11-2,51,45,37,-100,-100,-100,0,0,100,0.00,40.00,0,-999,0,0.00
2013-11-3,53,42,31,-100,-100,-100,0,0,100,0.00,40.00,0,-999,0,0.00
2013-11-4,53,46,41,-100,-100,-100,0,0,100,0.00,40.00,0,-999,0,0.00
2013-11-5,59,53,48,-100,-100,-100,0,0,100,0.00,40.00,0,-999,0,0.00
2013-11-6,57,48,37,-100,-100,-100,0,0,100,0.00,40.00,0,-999,0,0.00
2013-11-7,51,38,31,-100,-100,-100,0,0,100,0.00,40.00,0,-999,0,0.00
2013-11-8,53,41,29,-100,-100,-100,0,0,100,0.00,40.00,0,-999,0,0.00
2013-11-9,57,46,39,-100,-100,-100,0,0,100,0.00,40.00,0,-999,0,0.00
2013-11-10,57,45,35,-100,-100,-100,0,0,100,0.00,40.00,0,-999,0,0.00
2013-11-11,57,44,31,-100,-100,-100,0,0,100,0.00,40.00,0,-999,0,0.00
2013-11-12,41,31,23,-100,-100,-100,0,0,100,0.00,40.00,0,-999,0,0.00
2013-11-13,37,28,20,-100,-100,-100,0,0,100,0.00,40.00,0,-999,0,0.00
2013-11-14,48,34,23,-100,-100,-100,0,0,100,0.00,40.00,0,-999,0,0.00
2013-11-15,46,42,35,-100,-100,-100,0,0,100,0.00,40.00,0,-999,0,0.00
2013-11-16,60,53,46,-100,-100,-100,0,0,100,0.00,40.00,0,-999,0,0.00
2013-11-17,75,64,50,-100,-100,-100,0,0,100,0.00,40.00,0,-999,0,0.00
2013-11-18,59,47,35,-100,-100,-100,0,0,100,0.00,40.00,0,-999,0,0.00
2013-11-19,44,37,32,-100,-100,-100,0,0,100,0.00,40.00,0,-999,0,0.00
2013-11-20,50,39,29,-100,-100,-100,0,0,100,0.00,40.00,0,-999,0,0.00
2013-11-21,53,48,44,-100,-100,-100,0,0,100,0.00,40.00,0,-999,0,0.00
2013-11-22,53,47,35,-100,-100,-100,0,0,100,0.00,40.00,0,-999,0,0.00
2013-11-23,37,32,27,-100,-100,-100,0,0,100,0.00,40.00,0,-999,0,0.00
2013-11-24,22,20,18,-100,-100,-100,0,0,100,0.00,40.00,0,-999,0,0.00
2013-11-25,27,27,27,-100,-100,-100,0,0,100,0.00,40.00,0,-999,0,0.00
2013-11-26,31,28,27,-100,-100,-100,0,0,100,0.00,40.00,0,-999,0,0.00
2013-11-27,27,22,18,-100,-100,-100,0,0,100,0.00,40.00,0,-999,0,0.00
2013-11-28,37,25,16,-100,-100,-100,0,0,100,0.00,40.00,0,-999,0,0.00
2013-11-29,42,29,22,-100,-100,-100,0,0,100,0.00,40.00,0,-999,0,0.00
2013-11-30,50,36,29,-100,-100,-100,0,0,100,0.00,40.00,0,-999,0,0.00
2013-12-1,51,42,37,-100,-100,-100,0,0,100,0.00,40.00,0,-999,0,0.00
2013-12-2,53,42,35,-100,-100,-100,0,0,100,0.00,40.00,0,-999,0,0.00
2013-12-3,55,48,42,-100,-100,-100,0,0,100,0.00,40.00,0,-999,0,0.00
2013-12-4,64,58,50,-100,-100,-100,0,0,100,0.00,40.00,0,-999,0,0.00
2013-12-5,57,39,20,-100,-100,-100,0,0,100,0.00,40.00,0,-999,0,0.00
2013-12-6,20,14,11,-100,-100,-100,0,0,100,0.00,40.00,0,-999,0,0.00
2013-12-7,9,6,2,-100,-100,-100,0,0,100,0.00,40.00,0,-999,0,0.00
2013-12-8,22,18,13,-100,-100,-100,0,0,100,0.00,40.00,0,-999,0,0.00
2013-12-9,25,22,18,-100,-100,-100,0,0,100,0.00,40.00,0,-999,0,0.00
2013-12-10,22,18,13,-100,-100,-100,0,0,100,0.00,40.00,0,-999,0,0.00
2013-12-11,32,17,7,-100,-100,-100,0,0,100,0.00,40.00,0,-999,0,0.00
2013-12-12,20,14,4,-100,-100,-100,0,0,100,0.00,40.00,0,-999,0,0.00
2013-12-13,29,22,13,-100,-100,-100,0,0,100,0.00,40.00,0,-999,0,0.00
2013-12-14,31,28,25,-100,-100,-100,0,0,100,0.00,40.00,0,-999,0,0.00
2013-12-15,27,25,22,-100,-100,-100,0,0,100,0.00,40.00,0,-999,0,0.00
2013-12-16,44,35,27,-100,-100,-100,0,0,100,0.00,40.00,0,-999,0,0.00
2013-12-17,46,37,27,-100,-100,-100,0,0,100,0.00,40.00,0,-999,0,0.00
2013-12-18,44,33,22,-100,-100,-100,0,0,100,0.00,40.00,0,-999,0,0.00
2013-12-19,51,45,39,-100,-100,-100,0,0,100,0.00,40.00,0,-999,0,0.00
2013-12-20,60,57,50,-100,-100,-100,0,0,100,0.00,40.00,0,-999,0,0.00
2013-12-21,59,39,31,-100,-100,-100,0,0,100,0.00,40.00,0,-999,0,0.00
2013-12-22,39,36,31,-100,-100,-100,0,0,100,0.00,40.00,0,-999,0,0.00
2013-12-23,29,26,22,-100,-100,-100,0,0,100,0.00,40.00,0,-999,0,0.00
2013-12-24,16,16,16,-100,-100,-100,0,0,100,0.00,40.00,0,-999,0,0.00
2013-12-25,32,25,16,-100,-100,-100,0,0,100,0.00,40.00,0,-999,0,0.00
2013-12-26,35,28,22,-100,-100,-100,0,0,100,0.00,40.00,0,-999,0,0.00
2013-12-27,44,33,23,-100,-100,-100,0,0,100,0.00,40.00,0,-999,0,0.00
2013-12-28,42,33,25,-100,-100,-100,0,0,100,0.00,40.00,0,-999,0,0.00
2013-12-29,42,35,27,-100,-100,-100,0,0,100,0.00,40.00,0,-999,0,0.00
2013-12-30,20,20,20,-100,-100,-100,0,0,100,0.00,40.00,0,-999,0,0.00
2013-12-31,33,28,14,-100,-100,-100,0,0,100,0.00,40.00,0,-999,0,0.00
2014-1-1,41,31,22,-100,-100,-100,0,0,100,0.00,40.00,0,-999,0,0.00
2014-1-2,35,33,33,-100,-100,-100,0,0,100,0.00,40.00,0,-999,0,0.00